Location: *
(38.9555°S, 57.3572°E)
Time: 01:47:38
(UTC+00:00)

GEOS 3 Rocket - Pass Details

Date: 15 July 2020
Orbit: 771 x 848 km, 115.0° (Epoch: 06 August)

Event Time Altitude Azimuth Distance (km) Brightness Sun altitude
Exits shadow 15:41:24 62° 332° (NNW) 913 3.9 -29.4°
Maximum altitude 15:41:51 65° 303° (WNW) 891 3.9 -29.5°
Drops below altitude 10° 15:47:00 10° 221° (SW) 2,386 6.4 -30.5°
Sets 15:49:18 0° 217° (SW) 3,312 7.2 -30.9°
